HVN19 VVTS-LFPG

Flight info

Callsign HVN19
Flight time N/A
Altitude 34000
Route SAPEN5E SAPEN R468 ELMOP P629 BKK P646 IBITA/N0502F360 P646 JJS B209 KKJ L333 MERUN L750 MURLI/N0494F380 L750 RANAH B801 NINOP A909 RODAR M11 ERLEV T923 EDELU/N0491F400 T923 SUBUT T916 MATAL DCT TABAS DCT REBLO UM11 CRM UL746 ODERO DCT OPT DCT ENIMA DCT TEGRI DCT GAZDA DCT ARSIN DCT RENKA L610 STAUB/N0464F240 L610 MAMOR DCT ASPAT DCT VIBOM DCT BETEX DCT IDOSA DCT TOLVU/N0486F410 DCT RAPOR DCT VEDUS
Aircraft A359/H-SDE2E3GHIJ3J4J5LM1ORWXY/LB1D1

Departure

Time N/A
Airport Tan Son Nhat International Airport (VVTS)

Arrival

Time 2026-05-09 10:41
Airport Charles de Gaulle International Airport (LFPG)
Time Latitude Longitude Altitude Speed Heading
2026-05-09 07:02 41.15168 38.04444 35322 ft 462 kts 277°
2026-05-09 07:02 41.15507 38.00211 35603 ft 462 kts 277°
2026-05-09 07:02 41.15847 37.95963 35882 ft 462 kts 277°
2026-05-09 07:02 41.16184 37.91723 36196 ft 461 kts 277°
2026-05-09 07:03 41.16520 37.87494 36454 ft 461 kts 277°
2026-05-09 07:03 41.16872 37.83259 36651 ft 463 kts 278°
2026-05-09 07:03 41.17236 37.79014 36943 ft 461 kts 278°
2026-05-09 07:03 41.17599 37.74793 37268 ft 459 kts 278°
2026-05-09 07:04 41.17837 37.72015 37480 ft 457 kts 278°
2026-05-09 07:04 41.18312 37.66421 37878 ft 454 kts 278°
2026-05-09 07:04 41.18545 37.63659 38028 ft 454 kts 277°
2026-05-09 07:04 41.18890 37.59495 38158 ft 455 kts 277°
2026-05-09 07:05 41.19373 37.51137 38162 ft 454 kts 276°
2026-05-09 07:05 41.19931 37.42811 38158 ft 454 kts 277°
2026-05-09 07:06 41.20556 37.34455 38139 ft 454 kts 277°
2026-05-09 07:06 41.21181 37.26118 38151 ft 454 kts 277°
2026-05-09 07:07 41.21803 37.17753 38149 ft 455 kts 277°
2026-05-09 07:07 41.22457 37.09386 38143 ft 454 kts 277°
2026-05-09 07:08 41.23107 37.01083 38135 ft 455 kts 277°
2026-05-09 07:08 41.23748 36.92728 38135 ft 455 kts 277°
2026-05-09 07:09 41.24379 36.84373 38143 ft 454 kts 276°
2026-05-09 07:09 41.25005 36.75996 38130 ft 454 kts 276°
2026-05-09 07:10 41.25623 36.67644 38128 ft 454 kts 276°
2026-05-09 07:10 41.26236 36.59277 38129 ft 454 kts 276°
2026-05-09 07:11 41.27558 36.51139 38128 ft 454 kts 287°
2026-05-09 07:11 41.29511 36.43146 38128 ft 454 kts 289°
2026-05-09 07:12 41.31556 36.35189 38128 ft 455 kts 289°
2026-05-09 07:12 41.33599 36.27231 38129 ft 454 kts 289°
2026-05-09 07:13 41.35620 36.19270 38134 ft 454 kts 289°
2026-05-09 07:13 41.37635 36.11278 38148 ft 455 kts 289°
2026-05-09 07:14 41.39641 36.03287 38139 ft 456 kts 289°
2026-05-09 07:14 41.41645 35.95281 38144 ft 455 kts 288°
2026-05-09 07:15 41.43645 35.87267 38150 ft 456 kts 288°
2026-05-09 07:15 41.45642 35.79233 38133 ft 456 kts 288°
2026-05-09 07:16 41.47617 35.71256 38145 ft 456 kts 288°
2026-05-09 07:16 41.49603 35.63219 38140 ft 456 kts 288°
2026-05-09 07:17 41.51582 35.55177 38152 ft 456 kts 288°
2026-05-09 07:17 41.53559 35.47121 38157 ft 457 kts 288°
2026-05-09 07:18 41.55534 35.39045 38158 ft 457 kts 288°
2026-05-09 07:18 41.57503 35.30961 38159 ft 457 kts 288°
2026-05-09 07:19 41.59452 35.22932 38161 ft 457 kts 288°
2026-05-09 07:19 41.61409 35.14840 38158 ft 458 kts 288°
2026-05-09 07:20 41.63359 35.06743 38159 ft 458 kts 288°
2026-05-09 07:20 41.65313 34.98619 38152 ft 458 kts 287°
2026-05-09 07:21 41.67257 34.90498 38149 ft 459 kts 287°
2026-05-09 07:21 41.69198 34.82360 38153 ft 459 kts 287°
2026-05-09 07:22 41.71133 34.74215 38159 ft 459 kts 287°
2026-05-09 07:22 41.73059 34.66088 38157 ft 460 kts 287°
2026-05-09 07:23 41.74987 34.57919 38151 ft 460 kts 287°
2026-05-09 07:23 41.76910 34.49738 38162 ft 460 kts 287°
2026-05-09 07:24 41.78830 34.41541 38152 ft 461 kts 287°
2026-05-09 07:24 41.80744 34.33337 38161 ft 462 kts 287°
2026-05-09 07:25 41.82654 34.25120 38160 ft 462 kts 287°
2026-05-09 07:25 41.84559 34.16895 38153 ft 462 kts 287°
2026-05-09 07:26 41.86447 34.08714 38162 ft 462 kts 287°
2026-05-09 07:26 41.88344 34.00470 38158 ft 462 kts 287°
2026-05-09 07:27 41.90235 33.92221 38162 ft 462 kts 287°
2026-05-09 07:27 41.92110 33.84018 38160 ft 462 kts 287°
2026-05-09 07:28 41.93987 33.75768 38162 ft 462 kts 287°
2026-05-09 07:28 41.95848 33.67490 38145 ft 462 kts 285°
2026-05-09 07:29 41.97476 33.59124 38132 ft 463 kts 283°
2026-05-09 07:29 41.99024 33.50730 38133 ft 463 kts 283°
2026-05-09 07:30 42.00602 33.42324 38133 ft 463 kts 284°
2026-05-09 07:30 42.02198 33.33924 38134 ft 463 kts 284°
2026-05-09 07:31 42.03788 33.25572 38127 ft 464 kts 284°
2026-05-09 07:31 42.05383 33.17144 38127 ft 465 kts 284°
2026-05-09 07:32 42.06971 33.08704 38121 ft 466 kts 284°
2026-05-09 07:32 42.08631 33.00257 38119 ft 466 kts 285°
2026-05-09 07:33 42.11253 32.87636 38120 ft 467 kts 285°
2026-05-09 07:34 42.12975 32.79240 38119 ft 468 kts 285°
2026-05-09 07:34 42.14694 32.70765 38119 ft 469 kts 285°
2026-05-09 07:35 42.16405 32.62273 38120 ft 470 kts 284°
2026-05-09 07:35 42.18115 32.53763 38120 ft 470 kts 284°
2026-05-09 07:36 42.19812 32.45244 38119 ft 471 kts 284°
2026-05-09 07:36 42.21494 32.36766 38112 ft 471 kts 284°
2026-05-09 07:37 42.23185 32.28231 38108 ft 472 kts 284°
2026-05-09 07:37 42.24870 32.19657 38108 ft 472 kts 284°
2026-05-09 07:38 42.26545 32.11094 38111 ft 472 kts 284°
2026-05-09 07:38 42.28222 32.02501 38108 ft 472 kts 284°
2026-05-09 07:39 42.29886 31.93961 38109 ft 472 kts 284°
2026-05-09 07:39 42.31553 31.85360 38111 ft 472 kts 284°
2026-05-09 07:40 42.33215 31.76766 38107 ft 472 kts 284°
2026-05-09 07:40 42.34871 31.68174 38097 ft 473 kts 284°
2026-05-09 07:41 42.36518 31.59572 38103 ft 472 kts 284°
2026-05-09 07:41 42.38163 31.50958 38102 ft 473 kts 284°
2026-05-09 07:42 42.39798 31.42341 38104 ft 473 kts 283°
2026-05-09 07:42 42.41419 31.33752 38104 ft 474 kts 284°
2026-05-09 07:43 42.43044 31.25113 38102 ft 473 kts 284°
2026-05-09 07:43 42.44661 31.16482 38099 ft 473 kts 283°
2026-05-09 07:44 42.46271 31.07837 38098 ft 473 kts 283°
2026-05-09 07:44 42.47877 30.99164 38098 ft 474 kts 283°
2026-05-09 07:45 42.49467 30.90551 38103 ft 474 kts 283°
2026-05-09 07:45 42.51059 30.81879 38099 ft 474 kts 283°
2026-05-09 07:46 42.52647 30.73193 38096 ft 474 kts 283°
2026-05-09 07:46 42.54226 30.64509 38094 ft 474 kts 283°
2026-05-09 07:47 42.55797 30.55814 38081 ft 474 kts 283°
2026-05-09 07:47 42.57372 30.47091 38082 ft 475 kts 283°
2026-05-09 07:48 42.58936 30.38377 38082 ft 476 kts 283°
2026-05-09 07:48 42.60648 30.29706 38082 ft 476 kts 290°
2026-05-09 07:49 42.63739 30.21837 38092 ft 477 kts 304°
2026-05-09 07:49 42.67703 30.14586 38073 ft 478 kts 307°
2026-05-09 07:50 42.71792 30.07451 38060 ft 478 kts 307°
2026-05-09 07:50 42.75873 30.00308 38054 ft 478 kts 307°
2026-05-09 07:51 42.79927 29.93143 38055 ft 478 kts 307°
2026-05-09 07:51 42.83289 29.87164 38054 ft 478 kts 307°
2026-05-09 07:52 42.87988 29.78787 38046 ft 478 kts 306°
2026-05-09 07:52 42.92015 29.71585 38045 ft 477 kts 306°
2026-05-09 07:53 42.95364 29.65587 38045 ft 477 kts 306°
2026-05-09 07:53 42.99387 29.58366 38045 ft 477 kts 306°
2026-05-09 07:54 43.03405 29.51137 38045 ft 477 kts 306°
2026-05-09 07:54 43.07417 29.43899 38044 ft 478 kts 306°
2026-05-09 07:55 43.11425 29.36653 38036 ft 477 kts 306°
2026-05-09 07:55 43.15427 29.29393 38036 ft 477 kts 306°
2026-05-09 07:56 43.19425 29.22132 38027 ft 477 kts 306°
2026-05-09 07:56 43.23416 29.14868 38035 ft 477 kts 306°
2026-05-09 07:57 43.27394 29.07607 38045 ft 477 kts 306°
2026-05-09 07:57 43.31383 29.00300 38045 ft 477 kts 306°
2026-05-09 07:58 43.35328 28.93058 38045 ft 476 kts 306°
2026-05-09 07:58 43.39302 28.85747 38045 ft 477 kts 306°
2026-05-09 07:59 43.43270 28.78430 38045 ft 477 kts 306°
2026-05-09 07:59 43.47239 28.71092 38041 ft 477 kts 305°
2026-05-09 08:00 43.51177 28.63792 38045 ft 477 kts 305°
2026-05-09 08:00 43.55136 28.56438 38045 ft 477 kts 305°
2026-05-09 08:01 43.59087 28.49079 38046 ft 477 kts 305°
2026-05-09 08:01 43.63037 28.41702 38035 ft 477 kts 305°
2026-05-09 08:02 43.66977 28.34330 38036 ft 477 kts 305°
2026-05-09 08:02 43.70900 28.26967 38045 ft 478 kts 305°
2026-05-09 08:03 43.74839 28.19554 38045 ft 478 kts 305°
2026-05-09 08:03 43.78770 28.12132 38045 ft 478 kts 305°
2026-05-09 08:04 43.82701 28.04697 38045 ft 478 kts 305°
2026-05-09 08:04 43.86623 27.97265 38046 ft 478 kts 305°
2026-05-09 08:05 43.90548 27.89806 38045 ft 478 kts 304°
2026-05-09 08:05 43.94461 27.82350 38045 ft 478 kts 304°
2026-05-09 08:06 43.98367 27.74885 38045 ft 478 kts 304°
2026-05-09 08:06 44.02244 27.67456 38045 ft 477 kts 304°
2026-05-09 08:07 44.06138 27.59980 38045 ft 478 kts 304°
2026-05-09 08:07 44.10031 27.52489 38045 ft 478 kts 304°
2026-05-09 08:08 44.13920 27.44981 38044 ft 478 kts 304°
2026-05-09 08:08 44.17803 27.37463 38045 ft 477 kts 304°
2026-05-09 08:09 44.21672 27.29956 38045 ft 477 kts 304°
2026-05-09 08:09 44.25537 27.22441 38036 ft 476 kts 304°
2026-05-09 08:10 44.29378 27.14954 38036 ft 476 kts 304°
2026-05-09 08:10 44.33226 27.07429 38036 ft 476 kts 304°
2026-05-09 08:11 44.37067 26.99900 38036 ft 475 kts 304°
2026-05-09 08:11 44.40902 26.92360 38036 ft 475 kts 304°
2026-05-09 08:12 44.46642 26.81045 38035 ft 474 kts 304°
2026-05-09 08:12 44.50425 26.73559 38029 ft 474 kts 304°
2026-05-09 08:13 44.54230 26.66003 38033 ft 474 kts 303°
2026-05-09 08:13 44.58014 26.58422 38023 ft 473 kts 301°
2026-05-09 08:14 44.61001 26.50227 38024 ft 471 kts 292°
2026-05-09 08:14 44.63589 26.41826 38027 ft 471 kts 291°
2026-05-09 08:15 44.66121 26.33338 38030 ft 471 kts 291°
2026-05-09 08:15 44.68652 26.24850 38046 ft 471 kts 291°
2026-05-09 08:16 44.71192 26.16363 38046 ft 471 kts 291°
2026-05-09 08:16 44.73725 26.07878 38046 ft 471 kts 291°
2026-05-09 08:17 44.76241 25.99424 38045 ft 471 kts 291°
2026-05-09 08:17 44.78763 25.90914 38045 ft 470 kts 291°
2026-05-09 08:18 44.81273 25.82418 38045 ft 470 kts 291°
2026-05-09 08:18 44.83779 25.73902 38045 ft 470 kts 291°
2026-05-09 08:19 44.86276 25.65395 38045 ft 470 kts 291°
2026-05-09 08:19 44.88767 25.56876 38045 ft 470 kts 291°
2026-05-09 08:20 44.91251 25.48351 38048 ft 470 kts 291°
2026-05-09 08:20 44.93718 25.39853 38055 ft 470 kts 291°
2026-05-09 08:21 44.96190 25.31307 38055 ft 469 kts 290°
2026-05-09 08:21 44.98653 25.22772 38054 ft 469 kts 290°
2026-05-09 08:22 45.01112 25.14225 38054 ft 469 kts 290°
2026-05-09 08:22 45.03549 25.05716 38054 ft 469 kts 290°
2026-05-09 08:23 45.05999 24.97121 38054 ft 469 kts 290°
2026-05-09 08:23 45.08426 24.88602 38055 ft 469 kts 291°
2026-05-09 08:24 45.11145 24.80204 38055 ft 469 kts 294°
2026-05-09 08:24 45.14017 24.71891 38055 ft 469 kts 294°
2026-05-09 08:25 45.16844 24.63570 38053 ft 469 kts 294°
2026-05-09 08:25 45.19630 24.55198 38059 ft 469 kts 293°
2026-05-09 08:26 45.22391 24.46821 38063 ft 469 kts 293°
2026-05-09 08:26 45.25145 24.38439 38064 ft 469 kts 293°
2026-05-09 08:27 45.27876 24.30110 38063 ft 468 kts 293°
2026-05-09 08:27 45.30625 24.21701 38062 ft 468 kts 293°
2026-05-09 08:28 45.33362 24.13304 38064 ft 468 kts 292°
2026-05-09 08:28 45.36094 24.04891 38072 ft 468 kts 292°
2026-05-09 08:29 45.38818 23.96476 38074 ft 468 kts 292°
2026-05-09 08:29 45.41519 23.88111 38074 ft 467 kts 292°
2026-05-09 08:30 45.44220 23.79715 38073 ft 467 kts 292°
2026-05-09 08:30 45.46916 23.71304 38074 ft 467 kts 292°
2026-05-09 08:31 45.49608 23.62881 38072 ft 466 kts 292°
2026-05-09 08:31 45.52291 23.54449 38073 ft 466 kts 292°
2026-05-09 08:32 45.54970 23.46016 38071 ft 466 kts 292°
2026-05-09 08:33 45.58956 23.33415 38073 ft 466 kts 292°
2026-05-09 08:33 45.61624 23.24945 38074 ft 466 kts 292°
2026-05-09 08:34 45.64262 23.16542 38074 ft 466 kts 292°
2026-05-09 08:34 45.66912 23.08077 38071 ft 466 kts 292°
2026-05-09 08:35 45.69559 22.99585 38072 ft 467 kts 292°
2026-05-09 08:35 45.72201 22.91086 38077 ft 467 kts 292°
2026-05-09 08:36 45.74835 22.82587 38072 ft 467 kts 292°
2026-05-09 08:36 45.77461 22.74082 38070 ft 467 kts 291°
2026-05-09 08:37 45.80069 22.65606 38064 ft 467 kts 291°
2026-05-09 08:37 45.82688 22.57070 38073 ft 467 kts 291°
2026-05-09 08:38 45.85302 22.48521 38072 ft 467 kts 291°
2026-05-09 08:38 45.87888 22.40028 38072 ft 467 kts 291°
2026-05-09 08:39 45.90486 22.31466 38072 ft 468 kts 291°
2026-05-09 08:39 45.93080 22.22897 38071 ft 468 kts 291°
2026-05-09 08:40 45.95672 22.14302 38073 ft 468 kts 291°
2026-05-09 08:40 45.97818 22.07162 38073 ft 468 kts 291°
2026-05-09 08:41 46.00394 21.98562 38072 ft 468 kts 291°
2026-05-09 08:41 46.02969 21.89939 38072 ft 468 kts 291°
2026-05-09 08:42 46.05534 21.81313 38072 ft 468 kts 291°
2026-05-09 08:42 46.08096 21.72675 38072 ft 468 kts 291°
2026-05-09 08:43 46.10637 21.64081 38072 ft 468 kts 291°
2026-05-09 08:43 46.13184 21.55433 38075 ft 468 kts 290°
2026-05-09 08:44 46.15721 21.46790 38074 ft 467 kts 290°
2026-05-09 08:44 46.18249 21.38147 38072 ft 467 kts 290°
2026-05-09 08:45 46.20768 21.29504 38075 ft 467 kts 290°
2026-05-09 08:45 46.23280 21.20851 38075 ft 467 kts 290°
2026-05-09 08:46 46.25785 21.12196 38073 ft 466 kts 290°
2026-05-09 08:46 46.28388 21.03615 38073 ft 467 kts 293°
2026-05-09 08:47 46.31211 20.95166 38073 ft 466 kts 294°
2026-05-09 08:47 46.34018 20.86760 38082 ft 466 kts 293°
2026-05-09 08:48 46.36793 20.78280 38083 ft 466 kts 292°
2026-05-09 08:48 46.39542 20.69790 38082 ft 465 kts 292°
2026-05-09 08:49 46.42281 20.61293 38085 ft 465 kts 292°
2026-05-09 08:49 46.45012 20.52800 38082 ft 465 kts 292°
2026-05-09 08:50 46.47739 20.44294 38082 ft 464 kts 292°
2026-05-09 08:50 46.50454 20.35796 38092 ft 464 kts 292°
2026-05-09 08:51 46.53165 20.27282 38095 ft 464 kts 292°
2026-05-09 08:51 46.55855 20.18810 38094 ft 464 kts 292°
2026-05-09 08:52 46.58552 20.10280 38096 ft 464 kts 292°
2026-05-09 08:52 46.61245 20.01741 38101 ft 464 kts 292°
2026-05-09 08:53 46.63930 19.93194 38102 ft 464 kts 292°
2026-05-09 08:53 46.66604 19.84660 38102 ft 463 kts 292°
2026-05-09 08:54 46.69278 19.76094 38097 ft 463 kts 292°
2026-05-09 08:54 46.71937 19.67545 38102 ft 463 kts 292°
2026-05-09 08:55 46.74591 19.58983 38098 ft 463 kts 292°
2026-05-09 08:55 46.77228 19.50450 38098 ft 463 kts 292°
2026-05-09 08:56 46.79875 19.41859 38104 ft 463 kts 292°
2026-05-09 08:56 46.82507 19.33260 38100 ft 463 kts 291°
2026-05-09 08:57 46.85089 19.24712 38098 ft 462 kts 291°
2026-05-09 08:57 46.87677 19.16108 38102 ft 462 kts 291°
2026-05-09 08:58 46.90267 19.07491 38101 ft 462 kts 291°
2026-05-09 08:58 46.92852 18.98864 38101 ft 462 kts 291°
2026-05-09 08:59 46.95431 18.90227 38111 ft 462 kts 291°
2026-05-09 08:59 46.97984 18.81640 38111 ft 462 kts 291°
2026-05-09 09:00 47.00546 18.72990 38113 ft 463 kts 291°
2026-05-09 09:00 47.03108 18.64325 38109 ft 463 kts 291°
2026-05-09 09:01 47.05667 18.55642 38107 ft 463 kts 291°
2026-05-09 09:01 47.08214 18.46962 38109 ft 462 kts 291°
2026-05-09 09:02 47.10734 18.38341 38112 ft 461 kts 291°
2026-05-09 09:02 47.13253 18.29690 38110 ft 460 kts 291°
2026-05-09 09:03 47.15769 18.21031 38117 ft 461 kts 291°
2026-05-09 09:03 47.18281 18.12349 38119 ft 461 kts 291°
2026-05-09 09:04 47.20781 18.03674 38119 ft 460 kts 291°
2026-05-09 09:04 47.23265 17.95011 38126 ft 460 kts 291°
2026-05-09 09:05 47.25750 17.86329 38128 ft 459 kts 291°
2026-05-09 09:05 47.28211 17.77706 38130 ft 459 kts 291°
2026-05-09 09:06 47.30677 17.69030 38127 ft 459 kts 291°
2026-05-09 09:06 47.33142 17.60326 38128 ft 459 kts 291°
2026-05-09 09:07 47.35599 17.51620 38127 ft 459 kts 290°
2026-05-09 09:07 47.38026 17.42976 38129 ft 459 kts 290°
2026-05-09 09:08 47.40467 17.34259 38128 ft 459 kts 290°
2026-05-09 09:08 47.42901 17.25537 38129 ft 458 kts 290°
2026-05-09 09:09 47.45314 17.16861 38128 ft 458 kts 290°
2026-05-09 09:09 47.47738 17.08121 38129 ft 458 kts 290°
2026-05-09 09:10 47.50146 16.99396 38151 ft 458 kts 290°
2026-05-09 09:10 47.52541 16.90682 38146 ft 457 kts 290°
2026-05-09 09:11 47.54917 16.82013 38140 ft 457 kts 290°
2026-05-09 09:11 47.57308 16.73286 38133 ft 458 kts 291°
2026-05-09 09:12 47.60057 16.64773 38133 ft 459 kts 295°
2026-05-09 09:12 47.62977 16.56359 38133 ft 458 kts 295°
2026-05-09 09:13 47.65842 16.47913 38142 ft 458 kts 294°
2026-05-09 09:13 47.68657 16.39427 38140 ft 458 kts 294°
2026-05-09 09:14 47.71455 16.30899 38154 ft 459 kts 294°
2026-05-09 09:14 47.74250 16.22359 38139 ft 459 kts 294°
2026-05-09 09:15 47.77024 16.13840 38151 ft 459 kts 294°
2026-05-09 09:15 47.79806 16.05280 38138 ft 460 kts 294°
2026-05-09 09:16 47.82587 15.96715 38152 ft 459 kts 294°
2026-05-09 09:16 47.86744 15.83840 38152 ft 459 kts 293°
2026-05-09 09:17 47.89488 15.75305 38150 ft 459 kts 293°
2026-05-09 09:17 47.92242 15.66719 38132 ft 459 kts 293°
2026-05-09 09:18 47.94990 15.58110 38149 ft 459 kts 293°
2026-05-09 09:18 47.97726 15.49505 38146 ft 459 kts 293°
2026-05-09 09:19 48.00462 15.40893 38141 ft 458 kts 293°
2026-05-09 09:19 48.03163 15.32346 38153 ft 459 kts 293°
2026-05-09 09:20 48.05890 15.23691 38147 ft 460 kts 293°
2026-05-09 09:20 48.08612 15.15012 38151 ft 460 kts 293°
2026-05-09 09:21 48.11319 15.06355 38152 ft 460 kts 293°
2026-05-09 09:21 48.14029 14.97678 38152 ft 460 kts 293°
2026-05-09 09:22 48.16728 14.88988 38150 ft 460 kts 293°
2026-05-09 09:22 48.19407 14.80339 38145 ft 459 kts 293°
2026-05-09 09:23 48.22096 14.71626 38158 ft 459 kts 293°
2026-05-09 09:23 48.24774 14.62933 38150 ft 458 kts 293°
2026-05-09 09:24 48.27424 14.54286 38156 ft 458 kts 292°
2026-05-09 09:24 48.29632 14.47038 38155 ft 458 kts 292°
2026-05-09 09:25 48.32281 14.38334 38156 ft 458 kts 292°
2026-05-09 09:25 48.34931 14.29609 38159 ft 458 kts 292°
2026-05-09 09:26 48.37567 14.20882 38156 ft 457 kts 292°
2026-05-09 09:26 48.40191 14.12171 38156 ft 457 kts 292°
2026-05-09 09:27 48.42807 14.03452 38155 ft 457 kts 292°
2026-05-09 09:27 48.45401 13.94774 38159 ft 457 kts 292°
2026-05-09 09:28 48.48005 13.86033 38148 ft 457 kts 292°
2026-05-09 09:28 48.50610 13.77256 38155 ft 458 kts 292°
2026-05-09 09:29 48.53212 13.68485 38164 ft 457 kts 292°
2026-05-09 09:29 48.55798 13.59696 38169 ft 458 kts 292°
2026-05-09 09:30 48.58365 13.50952 38157 ft 458 kts 292°
2026-05-09 09:30 48.60744 13.42002 38170 ft 459 kts 288°
2026-05-09 09:31 48.62841 13.32884 38165 ft 459 kts 288°
2026-05-09 09:32 48.66019 13.19213 38154 ft 459 kts 288°
2026-05-09 09:32 48.68165 13.10177 38152 ft 460 kts 288°
2026-05-09 09:33 48.70338 13.01044 38152 ft 460 kts 288°
2026-05-09 09:33 48.72488 12.91920 38152 ft 460 kts 288°
2026-05-09 09:34 48.74634 12.82759 38156 ft 461 kts 288°
2026-05-09 09:34 48.76758 12.73668 38145 ft 460 kts 288°
2026-05-09 09:36 48.85229 12.36967 38148 ft 460 kts 288°
2026-05-09 09:37 48.87318 12.27833 38139 ft 461 kts 288°
2026-05-09 09:37 48.89412 12.18606 38148 ft 461 kts 287°
2026-05-09 09:38 48.91403 12.09336 38152 ft 461 kts 287°
2026-05-09 09:38 48.93360 12.00029 38142 ft 461 kts 287°
2026-05-09 09:39 48.95311 11.90770 38132 ft 462 kts 287°
2026-05-09 09:39 48.97281 11.81443 38133 ft 462 kts 287°
2026-05-09 09:40 48.99246 11.72101 38146 ft 463 kts 287°
2026-05-09 09:40 49.01201 11.62774 38148 ft 462 kts 287°
2026-05-09 09:41 49.03150 11.53427 38144 ft 462 kts 287°
2026-05-09 09:41 49.05076 11.44145 38134 ft 462 kts 287°
2026-05-09 09:42 49.07010 11.34779 38134 ft 463 kts 287°
2026-05-09 09:42 49.08941 11.25388 38134 ft 463 kts 287°
2026-05-09 09:43 49.10861 11.16019 38134 ft 463 kts 287°
2026-05-09 09:43 49.12771 11.06626 38132 ft 463 kts 287°
2026-05-09 09:44 49.14673 10.97237 38133 ft 463 kts 287°
2026-05-09 09:44 49.16567 10.87843 38151 ft 463 kts 287°
2026-05-09 09:45 49.18445 10.78496 38150 ft 463 kts 287°
2026-05-09 09:45 49.20321 10.69066 38146 ft 463 kts 286°
2026-05-09 09:46 49.22033 10.59555 38152 ft 463 kts 284°
2026-05-09 09:46 49.23684 10.50008 38152 ft 464 kts 284°
2026-05-09 09:47 49.25352 10.40464 38145 ft 464 kts 285°
2026-05-09 09:47 49.27030 10.30917 38139 ft 464 kts 285°
2026-05-09 09:48 49.28704 10.21380 38133 ft 465 kts 285°
2026-05-09 09:48 49.30374 10.11809 38128 ft 465 kts 285°
2026-05-09 09:49 49.32027 10.02281 38129 ft 465 kts 285°
2026-05-09 09:49 49.33680 9.92691 38128 ft 465 kts 285°
2026-05-09 09:50 49.35324 9.83110 38128 ft 465 kts 285°
2026-05-09 09:50 49.36961 9.73516 38128 ft 465 kts 285°
2026-05-09 09:51 49.38591 9.63914 38128 ft 465 kts 285°
2026-05-09 09:51 49.40211 9.54305 38130 ft 465 kts 284°
2026-05-09 09:52 49.41821 9.44690 38128 ft 464 kts 284°
2026-05-09 09:52 49.43417 9.35124 38127 ft 464 kts 284°
2026-05-09 09:53 49.45016 9.25480 38127 ft 464 kts 284°
2026-05-09 09:53 49.46605 9.15854 38126 ft 463 kts 284°
2026-05-09 09:54 49.48068 9.06206 38129 ft 463 kts 282°
2026-05-09 09:54 49.49362 8.96559 38130 ft 463 kts 282°
2026-05-09 09:55 49.50665 8.86849 38127 ft 463 kts 282°
2026-05-09 09:55 49.51987 8.77144 38128 ft 463 kts 282°
2026-05-09 09:56 49.53312 8.67437 38128 ft 463 kts 282°
2026-05-09 09:56 49.54626 8.57777 38128 ft 463 kts 282°
2026-05-09 09:57 49.55937 8.48066 38128 ft 463 kts 282°
2026-05-09 09:57 49.57240 8.38345 38128 ft 463 kts 282°
2026-05-09 09:58 49.58530 8.28644 38127 ft 464 kts 282°
2026-05-09 09:58 49.59819 8.18878 38129 ft 464 kts 282°
2026-05-09 09:59 49.61099 8.09113 38128 ft 464 kts 282°
2026-05-09 09:59 49.62371 7.99359 38119 ft 464 kts 282°
2026-05-09 10:00 49.63635 7.89590 38120 ft 464 kts 282°
2026-05-09 10:00 49.64882 7.79882 38117 ft 464 kts 282°
2026-05-09 10:01 49.66128 7.70104 38119 ft 464 kts 282°
2026-05-09 10:01 49.67368 7.60319 38119 ft 464 kts 282°
2026-05-09 10:02 49.68598 7.50543 38113 ft 464 kts 282°
2026-05-09 10:02 49.69817 7.40769 38118 ft 463 kts 281°
2026-05-09 10:03 49.71027 7.30989 38118 ft 463 kts 281°
2026-05-09 10:03 49.72220 7.21286 38119 ft 462 kts 281°
2026-05-09 10:04 49.73417 7.11497 38117 ft 462 kts 281°
2026-05-09 10:04 49.74600 7.01734 38119 ft 462 kts 281°
2026-05-09 10:05 49.75777 6.91960 38118 ft 461 kts 281°
2026-05-09 10:05 49.76945 6.82204 38113 ft 462 kts 281°
2026-05-09 10:06 49.78098 6.72481 38111 ft 462 kts 281°
2026-05-09 10:06 49.79248 6.62688 38111 ft 462 kts 281°
2026-05-09 10:07 49.80391 6.52898 38111 ft 462 kts 281°
2026-05-09 10:07 49.81146 6.43099 38112 ft 462 kts 270°
2026-05-09 10:08 49.80397 6.33214 38111 ft 464 kts 261°
2026-05-09 10:08 49.79132 6.23412 38099 ft 464 kts 259°
2026-05-09 10:09 49.77790 6.13630 38102 ft 465 kts 259°
2026-05-09 10:09 49.76453 6.03849 38099 ft 465 kts 259°
2026-05-09 10:10 49.75351 5.95706 38101 ft 465 kts 259°
2026-05-09 10:10 49.73862 5.85989 38095 ft 466 kts 253°
2026-05-09 10:10 49.72843 5.81243 37860 ft 466 kts 252°
2026-05-09 10:11 49.71421 5.74964 37535 ft 466 kts 251°
2026-05-09 10:11 49.70680 5.71776 37379 ft 466 kts 251°
2026-05-09 10:11 49.69589 5.67119 37123 ft 467 kts 251°
2026-05-09 10:11 49.68479 5.62399 36872 ft 467 kts 251°
2026-05-09 10:12 49.67366 5.57680 36624 ft 468 kts 251°
2026-05-09 10:12 49.66252 5.52952 36376 ft 469 kts 251°
2026-05-09 10:12 49.65135 5.48212 36116 ft 471 kts 251°
2026-05-09 10:12 49.64015 5.43459 35867 ft 474 kts 251°
2026-05-09 10:13 49.62881 5.38654 35633 ft 477 kts 251°
2026-05-09 10:13 49.61750 5.33823 35234 ft 477 kts 251°
2026-05-09 10:13 49.60683 5.28969 34511 ft 477 kts 252°
2026-05-09 10:13 49.59749 5.24043 33651 ft 479 kts 258°
2026-05-09 10:14 49.59264 5.18970 32785 ft 481 kts 267°
2026-05-09 10:14 49.59205 5.13878 31893 ft 483 kts 271°
2026-05-09 10:14 49.59245 5.08689 30969 ft 485 kts 271°
2026-05-09 10:14 49.59292 5.03477 30022 ft 488 kts 271°
2026-05-09 10:15 49.59336 4.98244 29196 ft 487 kts 271°
2026-05-09 10:15 49.59376 4.93101 29027 ft 472 kts 270°
2026-05-09 10:15 49.59412 4.88115 28897 ft 457 kts 270°
2026-05-09 10:15 49.59444 4.83297 28609 ft 446 kts 270°
2026-05-09 10:16 49.59473 4.78542 28080 ft 442 kts 270°
2026-05-09 10:16 49.59504 4.73808 27612 ft 441 kts 270°
2026-05-09 10:16 49.59529 4.69045 27139 ft 445 kts 270°
2026-05-09 10:16 49.59550 4.64274 26654 ft 444 kts 270°
2026-05-09 10:17 49.59570 4.59526 26186 ft 441 kts 270°
2026-05-09 10:17 49.59588 4.54824 25718 ft 438 kts 270°
2026-05-09 10:17 49.59604 4.50132 25247 ft 435 kts 270°
2026-05-09 10:17 49.59619 4.45485 24793 ft 432 kts 270°
2026-05-09 10:18 49.59631 4.40860 24326 ft 430 kts 270°
2026-05-09 10:18 49.59642 4.36265 23868 ft 427 kts 270°
2026-05-09 10:18 49.59651 4.31692 23414 ft 425 kts 270°
2026-05-09 10:18 49.59659 4.27214 22966 ft 422 kts 269°
2026-05-09 10:19 49.59664 4.22708 22512 ft 419 kts 269°
2026-05-09 10:19 49.59668 4.18234 22079 ft 416 kts 269°
2026-05-09 10:19 49.59670 4.13769 21632 ft 413 kts 269°
2026-05-09 10:19 49.59572 4.09367 21186 ft 410 kts 262°
2026-05-09 10:20 49.58852 4.05160 20767 ft 405 kts 245°
2026-05-09 10:20 49.57487 4.01404 20339 ft 401 kts 237°
2026-05-09 10:20 49.55966 3.97805 19907 ft 398 kts 236°
2026-05-09 10:20 49.54450 3.94252 19482 ft 396 kts 236°
2026-05-09 10:21 49.52949 3.90719 19044 ft 392 kts 236°
2026-05-09 10:21 49.51465 3.87219 18644 ft 390 kts 236°
2026-05-09 10:21 49.49990 3.83739 18228 ft 387 kts 236°
2026-05-09 10:21 49.48523 3.80269 17816 ft 384 kts 237°
2026-05-09 10:22 49.47324 3.76612 17423 ft 383 kts 249°
2026-05-09 10:22 49.46574 3.72698 17006 ft 381 kts 254°
2026-05-09 10:22 49.45929 3.68814 16591 ft 378 kts 255°
2026-05-09 10:22 49.45285 3.64919 16204 ft 375 kts 255°
2026-05-09 10:23 49.44642 3.61045 15891 ft 372 kts 255°
2026-05-09 10:23 49.43997 3.57205 15707 ft 371 kts 254°
2026-05-09 10:23 49.43345 3.53362 15494 ft 370 kts 254°
2026-05-09 10:23 49.42696 3.49550 15280 ft 368 kts 254°
2026-05-09 10:24 49.42011 3.45770 15074 ft 366 kts 250°
2026-05-09 10:24 49.41030 3.42180 14826 ft 364 kts 244°
2026-05-09 10:24 49.39922 3.38679 14584 ft 363 kts 243°
2026-05-09 10:24 49.38810 3.35212 14332 ft 362 kts 243°
2026-05-09 10:25 49.37673 3.31661 14222 ft 381 kts 243°
2026-05-09 10:25 49.36490 3.27957 14153 ft 388 kts 243°
2026-05-09 10:25 49.35229 3.24341 14029 ft 385 kts 241°
2026-05-09 10:25 49.33981 3.20681 13786 ft 389 kts 242°
2026-05-09 10:26 49.32745 3.17001 13548 ft 387 kts 242°
2026-05-09 10:26 49.31513 3.13353 13289 ft 384 kts 242°
2026-05-09 10:26 49.30283 3.09731 13049 ft 383 kts 242°
2026-05-09 10:26 49.29050 3.06116 12795 ft 381 kts 242°
2026-05-09 10:27 49.27826 3.02534 12556 ft 380 kts 242°
2026-05-09 10:27 49.26595 2.98949 12292 ft 379 kts 242°
2026-05-09 10:27 49.25369 2.95383 12040 ft 377 kts 242°
2026-05-09 10:27 49.24146 2.91830 11797 ft 376 kts 242°
2026-05-09 10:28 49.22928 2.88297 11551 ft 375 kts 242°
2026-05-09 10:28 49.21728 2.84815 11295 ft 375 kts 241°
2026-05-09 10:28 49.20535 2.81355 11130 ft 358 kts 241°
2026-05-09 10:28 49.19399 2.78070 10976 ft 340 kts 241°
2026-05-09 10:29 49.18318 2.74947 10860 ft 324 kts 241°
2026-05-09 10:29 49.17289 2.71979 10720 ft 309 kts 241°
2026-05-09 10:29 49.16302 2.69134 10591 ft 296 kts 241°
2026-05-09 10:29 49.15358 2.66415 10457 ft 283 kts 241°
2026-05-09 10:30 49.14452 2.63810 10299 ft 272 kts 240°
2026-05-09 10:30 49.13576 2.61295 10172 ft 267 kts 240°
2026-05-09 10:30 49.12712 2.58819 9925 ft 267 kts 240°
2026-05-09 10:30 49.11811 2.56244 9774 ft 282 kts 240°
2026-05-09 10:31 49.10881 2.53587 9613 ft 282 kts 240°
2026-05-09 10:31 49.09949 2.50930 9118 ft 285 kts 240°
2026-05-09 10:31 49.09012 2.48260 8687 ft 286 kts 240°
2026-05-09 10:31 49.08074 2.45586 8351 ft 285 kts 240°
2026-05-09 10:32 49.07139 2.42914 8031 ft 285 kts 240°
2026-05-09 10:32 49.06208 2.40263 7723 ft 283 kts 240°
2026-05-09 10:32 49.05285 2.37609 7394 ft 283 kts 242°
2026-05-09 10:32 49.04750 2.34733 7065 ft 285 kts 263°
2026-05-09 10:33 49.04643 2.31718 6693 ft 284 kts 267°
2026-05-09 10:33 49.04607 2.28733 6318 ft 283 kts 268°
2026-05-09 10:33 49.04583 2.25754 5935 ft 282 kts 268°
2026-05-09 10:33 49.04685 2.22750 5570 ft 281 kts 274°
2026-05-09 10:34 49.04598 2.19851 5493 ft 279 kts 258°
2026-05-09 10:34 49.02481 2.15252 5490 ft 270 kts 201°
2026-05-09 10:34 49.00665 2.14895 5490 ft 264 kts 168°
2026-05-09 10:35 48.99090 2.16098 5372 ft 249 kts 135°
2026-05-09 10:35 48.97984 2.18030 5253 ft 236 kts 123°
2026-05-09 10:35 48.97465 2.20302 5130 ft 225 kts 98°
2026-05-09 10:35 48.97445 2.22680 4843 ft 225 kts 87°
2026-05-09 10:36 48.97601 2.25040 4492 ft 225 kts 85°
2026-05-09 10:36 48.97739 2.27419 4113 ft 225 kts 86°
2026-05-09 10:36 48.97857 2.29797 3782 ft 225 kts 86°
2026-05-09 10:36 48.97985 2.32163 3481 ft 220 kts 86°
2026-05-09 10:37 48.98106 2.34374 3192 ft 199 kts 85°
2026-05-09 10:37 48.98216 2.36382 2931 ft 183 kts 85°
2026-05-09 10:37 48.98312 2.38236 2677 ft 172 kts 85°
2026-05-09 10:37 48.98407 2.39979 2473 ft 158 kts 85°
2026-05-09 10:38 48.98492 2.41581 2261 ft 146 kts 85°
2026-05-09 10:38 48.98570 2.43054 2073 ft 133 kts 85°
2026-05-09 10:38 48.98644 2.44433 1902 ft 128 kts 85°
2026-05-09 10:38 48.98716 2.45801 1763 ft 130 kts 86°
2026-05-09 10:39 48.98789 2.47158 1583 ft 130 kts 85°
2026-05-09 10:39 48.98863 2.48536 1414 ft 131 kts 85°
2026-05-09 10:39 48.98938 2.49933 1206 ft 132 kts 84°
2026-05-09 10:39 48.99021 2.51308 1038 ft 131 kts 84°
2026-05-09 10:40 48.99088 2.52691 923 ft 132 kts 85°
2026-05-09 10:40 48.99157 2.54082 751 ft 131 kts 85°
2026-05-09 10:40 48.99233 2.55444 561 ft 130 kts 84°
2026-05-09 10:40 48.99307 2.56814 390 ft 130 kts 85°
2026-05-09 10:41 48.99374 2.58081 364 ft 92 kts 85°
2026-05-09 10:41 48.99406 2.58702 360 ft 46 kts 85°
2026-05-09 10:41 48.99451 2.59185 358 ft 46 kts 73°
2026-05-09 10:41 48.99550 2.59529 361 ft 10 kts 64°
2026-05-09 10:42 48.99586 2.59639 367 ft 13 kts 58°
2026-05-09 10:42 48.99659 2.59688 363 ft 11 kts 358°
2026-05-09 10:42 48.99669 2.59687 363 ft 1 kts 357°
2026-05-09 10:42 48.99703 2.59685 361 ft 9 kts 356°
2026-05-09 10:43 48.99800 2.59674 363 ft 19 kts 356°
2026-05-09 10:43 48.99944 2.59649 360 ft 22 kts 340°
2026-05-09 10:43 48.99982 2.59474 367 ft 12 kts 265°
2026-05-09 10:43 48.99975 2.59328 364 ft 15 kts 265°
2026-05-09 10:44 48.99966 2.59150 360 ft 18 kts 265°
2026-05-09 10:44 48.99978 2.59046 362 ft 10 kts 304°
2026-05-09 10:44 49.00035 2.58974 360 ft 11 kts 301°
2026-05-09 10:44 49.00038 2.58873 360 ft 9 kts 264°
2026-05-09 10:45 49.00038 2.58867 363 ft 0 kts 264°
2026-05-09 10:46 49.00112 2.58753 360 ft 3 kts 306°
2026-05-09 10:46 49.00124 2.58710 365 ft 6 kts 290°
2026-05-09 10:46 49.00128 2.58685 361 ft 0 kts 281°
2026-05-09 10:46 49.00133 2.58650 367 ft 0 kts 282°
2026-05-09 10:47 49.00133 2.58646 367 ft 0 kts 282°